Location: ČR
(50.0000°N, 15.0000°E)
Time: 18:56:53
(UTC+02:00)

Altair - All Passes

Search period start: 18 April 2026 00:00
Search period end: 28 April 2026 00:00
Orbit: 1502 x 1682 km, 47.2° (Epoch: 18 April)

Date Brightness Start Highest point End Pass type
(mag) Time Alt. Az. Time Alt. Az. Time Alt. Az.
18 Apr - 12:07:41 10° S 12:15:50 29° SE 12:23:51 10° E daylight
18 Apr - 14:09:30 10° SW 14:19:21 61° SSE 14:28:54 10° E daylight
18 Apr - 16:13:49 10° W 16:23:48 77° S 16:33:25 10° E daylight
18 Apr - 18:18:37 10° W 18:28:10 58° SSW 18:37:20 10° SE daylight
18 Apr - 20:24:01 10° W 20:31:23 26° SW 20:38:35 10° S visible
19 Apr - 11:42:50 10° S 11:50:43 27° SE 11:58:30 10° E daylight
19 Apr - 13:44:19 10° SW 13:54:08 59° SSE 14:03:40 10° E daylight
19 Apr - 15:48:33 10° W 15:58:33 77° S 16:08:12 10° E daylight
19 Apr - 17:53:20 10° W 18:02:58 61° SSW 18:12:13 10° SE daylight
19 Apr - 19:58:36 10° W 20:06:18 28° SW 20:13:47 10° S daylight
20 Apr - 11:18:00 10° S 11:25:36 25° SE 11:33:06 10° E daylight
20 Apr - 13:19:09 10° SW 13:28:55 56° SSE 13:38:26 10° E daylight
20 Apr - 15:23:16 10° W 15:33:18 77° S 15:42:59 10° E daylight
20 Apr - 17:28:03 10° W 17:37:46 63° SSW 17:47:06 10° SE daylight
20 Apr - 19:33:14 10° W 19:41:12 30° SW 19:48:57 10° SSE daylight
21 Apr - 10:53:13 10° S 11:00:30 23° SE 11:07:41 10° E daylight
21 Apr - 12:54:00 10° SW 13:03:43 54° SSE 13:13:13 10° E daylight
21 Apr - 14:57:59 10° WSW 15:08:04 77° S 15:17:46 10° E daylight
21 Apr - 17:02:46 10° W 17:12:33 65° SSW 17:21:57 10° ESE daylight
21 Apr - 19:07:52 10° W 19:16:06 32° SW 19:24:05 10° SSE daylight
22 Apr - 10:28:30 10° S 10:35:24 21° SE 10:42:14 10° E daylight
22 Apr - 12:28:51 10° SW 12:38:31 52° SSE 12:47:58 10° ENE daylight
22 Apr - 14:32:43 10° WSW 14:42:47 76° S 14:52:33 10° E daylight
22 Apr - 16:37:29 10° W 16:47:21 67° SSW 16:56:48 10° ESE daylight
22 Apr - 18:42:31 10° W 18:50:59 35° SW 18:59:11 10° SSE daylight
23 Apr - 10:03:50 10° SSE 10:10:18 19° SE 10:16:42 10° E daylight
23 Apr - 12:03:44 10° SW 12:13:19 49° SSE 12:22:43 10° ENE daylight
23 Apr - 14:07:27 10° WSW 14:17:33 75° S 14:27:20 10° E daylight
23 Apr - 16:12:12 10° W 16:22:07 69° SSW 16:31:38 10° ESE daylight
23 Apr - 18:17:11 10° W 18:25:52 37° SW 18:34:15 10° SSE daylight
23 Apr - 20:27:00 10° WSW 20:28:10 10° WSW 20:29:21 10° SW daylight
24 Apr - 09:39:16 10° SSE 09:45:13 18° SE 09:51:08 10° E daylight
24 Apr - 11:38:38 10° SW 11:48:07 47° SSE 11:57:28 10° ENE daylight
24 Apr - 13:42:11 10° WSW 13:52:17 74° S 14:02:06 10° E daylight
24 Apr - 15:46:55 10° W 15:56:53 71° SSW 16:06:28 10° ESE daylight
24 Apr - 17:51:51 10° WNW 18:00:44 40° SW 18:09:17 10° SSE daylight
24 Apr - 20:00:02 10° WSW 20:03:09 12° WSW 20:06:14 10° SW daylight
25 Apr - 09:14:48 10° SSE 09:20:08 16° SE 09:25:28 10° E daylight
25 Apr - 11:13:33 10° SSW 11:22:56 44° SE 11:32:12 10° ENE daylight
25 Apr - 13:16:56 10° WSW 13:27:02 73° SSE 13:36:52 10° E daylight
25 Apr - 15:21:39 10° W 15:31:39 72° SSW 15:41:17 10° ESE daylight
25 Apr - 17:26:32 10° WNW 17:35:35 42° SW 17:44:18 10° SSE daylight
25 Apr - 19:33:56 10° W 19:38:07 14° WSW 19:42:16 10° SSW daylight
26 Apr - 08:50:27 10° SSE 08:55:04 14° ESE 08:59:40 10° E daylight
26 Apr - 10:48:30 10° SSW 10:57:46 42° SE 11:06:55 10° ENE daylight
26 Apr - 12:51:42 10° WSW 13:01:47 72° SSE 13:11:38 10° E daylight
26 Apr - 14:56:21 10° W 15:06:24 74° S 15:16:06 10° ESE daylight
26 Apr - 17:01:14 10° WNW 17:10:26 45° SW 17:19:18 10° SSE daylight
26 Apr - 19:08:04 10° W 19:13:04 15° SW 19:18:00 10° SSW daylight
27 Apr - 08:26:21 10° SE 08:30:01 12° ESE 08:33:40 10° E daylight
27 Apr - 10:23:28 10° SSW 10:32:35 40° SE 10:41:38 10° ENE daylight
27 Apr - 12:26:28 10° WSW 12:36:32 70° SSE 12:46:23 10° E daylight
27 Apr - 14:31:04 10° W 14:41:09 75° S 14:50:54 10° ESE daylight
27 Apr - 16:35:55 10° WNW 16:45:16 47° SSW 16:54:16 10° SE daylight
27 Apr - 18:42:22 10° W 18:48:01 17° SW 18:53:35 10° SSW daylight
